West Bend, WI

1:19 AM CST on November 19, 2019 (GMT -0600)
West Bend Municipal

Weather History for KETB - October, 2019

Change the Weather History Date:

Wednesday, October 23, 2019

  Actual Average Record
Temperature  
Mean Temperature 45 °F -  
Max Temperature 53 °F 57 °F 82 °F (1963)
Min Temperature 37 °F 38 °F 19 °F (1936)
Degree Days  
Heating Degree Days 20    
Moisture  
Dew Point 32 °F    
Average Humidity 65    
Maximum Humidity 100    
Minimum Humidity 35    
Precipitation  
Precipitation 0.07 in - - ()
Sea Level Pressure  
Sea Level Pressure 29.85 in    
Wind  
Wind Speed 10 mph (WSW)    
Max Wind Speed 16 mph    
Max Gust Speed 25 mph    
Visibility 10 miles    
Events Rain    
Averages and records for this station are not official NWS values.
T = Trace of Precipitation, MM = Missing Value Source: NWS Daily Summary

Daily Weather History Graph

Daily Weather History Graph

Search for Another Location

Airport or City:

Astronomy

Oct. 23, 2019 Rise Set
Actual Time 7:16 AM CDT 5:56 PM CDT
Civil Twilight 6:46 AM CDT 6:26 PM CDT
Nautical Twilight 6:13 AM CDT 6:59 PM CDT
Astronomical Twilight 5:40 AM CDT 7:32 PM CDT
Moon 1:21 AM CDT (10/23) 3:58 PM CDT (10/23)
Length of Visible Light 11h 39m
Length of Day
10h 40m
Waning Crescent, 26% of the Moon is Illuminated
Oct 23
Waning Crescent
Oct 27
New
Nov 4
First Quarter
Nov 12
Full
Nov 19
Last Quarter

Hourly Weather History & Observations

Time (CDT) Temp. Windchill Dew Point Humidity Pressure Visibility Wind Dir Wind Speed Gust Speed Precip Events Conditions
12:15 AM 44.6 °F 39.2 °F 33.8 °F 66% 29.67 in 10.0 mi West 10.4 mph - N/A   Overcast
12:35 AM 44.6 °F 37.4 °F 33.8 °F 66% 29.67 in 10.0 mi West 16.1 mph 20.7 mph N/A   Overcast
12:55 AM 44.6 °F 38.4 °F 32.0 °F 61% 29.67 in 10.0 mi WSW 12.7 mph 18.4 mph N/A   Overcast
1:15 AM 44.6 °F 38.4 °F 32.0 °F 61% 29.68 in 10.0 mi WSW 12.7 mph 19.6 mph N/A   Overcast
1:35 AM 44.6 °F 37.8 °F 32.0 °F 61% 29.68 in 10.0 mi WSW 15.0 mph 23.0 mph N/A   Overcast
1:55 AM 44.6 °F 37.8 °F 32.0 °F 61% 29.68 in 10.0 mi WSW 15.0 mph 18.4 mph N/A   Overcast
2:35 AM 42.8 °F 37.5 °F 33.8 °F 70% 29.70 in 10.0 mi WSW 9.2 mph - N/A   Overcast
2:55 AM 41.0 °F 34.7 °F 32.0 °F 70% 29.70 in 10.0 mi WSW 10.4 mph - N/A   Overcast
3:15 AM 41.0 °F 34.3 °F 32.0 °F 70% 29.70 in 10.0 mi WSW 11.5 mph 16.1 mph N/A   Scattered Clouds
3:35 AM 41.0 °F 35.2 °F 32.0 °F 70% 29.70 in 10.0 mi WSW 9.2 mph - N/A   Clear
3:55 AM 41.0 °F 35.2 °F 32.0 °F 70% 29.71 in 10.0 mi WSW 9.2 mph - N/A   Clear
4:15 AM 39.2 °F 33.6 °F 32.0 °F 75% 29.71 in 10.0 mi WSW 8.1 mph - N/A   Clear
4:35 AM 39.2 °F 32.5 °F 32.0 °F 75% 29.72 in 10.0 mi WSW 10.4 mph - N/A   Clear
4:55 AM 39.2 °F 33.0 °F 32.0 °F 75% 29.75 in 10.0 mi WSW 9.2 mph 17.3 mph N/A   Clear
5:15 AM 37.4 °F 30.8 °F 32.0 °F 81% 29.76 in 10.0 mi WSW 9.2 mph - N/A   Clear
5:35 AM 37.4 °F 29.8 °F 32.0 °F 81% 29.76 in 10.0 mi WSW 11.5 mph 18.4 mph N/A   Clear
5:55 AM 37.4 °F 30.8 °F 32.0 °F 81% 29.77 in 10.0 mi WSW 9.2 mph 19.6 mph N/A   Clear
6:15 AM 37.4 °F 29.8 °F 32.0 °F 81% 29.78 in 10.0 mi WSW 11.5 mph 18.4 mph N/A   Clear
6:35 AM 37.4 °F 29.3 °F 32.0 °F 81% 29.78 in 10.0 mi WSW 12.7 mph 18.4 mph N/A   Clear
6:55 AM 37.4 °F 30.8 °F 32.0 °F 81% 29.79 in 10.0 mi WSW 9.2 mph 18.4 mph N/A   Clear
7:15 AM 37.4 °F 30.8 °F 32.0 °F 81% 29.80 in 10.0 mi WSW 9.2 mph 19.6 mph N/A   Clear
7:35 AM 37.4 °F 29.3 °F 32.0 °F 81% 29.81 in 10.0 mi WSW 12.7 mph 18.4 mph N/A   Clear
7:55 AM 37.4 °F 29.8 °F 32.0 °F 81% 29.82 in 10.0 mi WSW 11.5 mph 18.4 mph N/A   Clear
8:15 AM 37.4 °F 28.5 °F 32.0 °F 81% 29.82 in 10.0 mi West 15.0 mph 18.4 mph N/A   Clear
8:35 AM 39.2 °F 32.0 °F 32.0 °F 75% 29.82 in 10.0 mi West 11.5 mph 17.3 mph N/A   Clear
8:55 AM 39.2 °F 31.2 °F 32.0 °F 75% 29.83 in 10.0 mi West 13.8 mph 19.6 mph N/A   Clear
9:15 AM 41.0 °F 33.5 °F 32.0 °F 70% 29.85 in 10.0 mi WSW 13.8 mph 20.7 mph N/A   Clear
9:35 AM 42.8 °F 35.8 °F 33.8 °F 70% 29.85 in 10.0 mi West 13.8 mph 21.9 mph N/A   Clear
9:55 AM 42.8 °F 36.6 °F 33.8 °F 70% 29.86 in 10.0 mi WSW 11.5 mph - N/A   Clear
10:15 AM 44.6 °F 38.8 °F 33.8 °F 66% 29.87 in 10.0 mi West 11.5 mph 19.6 mph N/A   Clear
10:35 AM 46.4 °F 41.1 °F 33.8 °F 62% 29.87 in 10.0 mi WSW 11.5 mph 16.1 mph N/A   Clear
10:55 AM 46.4 °F 40.1 °F 33.8 °F 62% 29.87 in 10.0 mi West 15.0 mph 24.2 mph N/A   Clear
11:15 AM 46.4 °F 40.1 °F 33.8 °F 62% 29.87 in 10.0 mi West 15.0 mph - N/A   Clear
11:35 AM 48.2 °F - 32.0 °F 54% 29.88 in 10.0 mi West 13.8 mph 21.9 mph N/A   Clear
11:55 AM 50.0 °F - 32.0 °F 50% 29.88 in 10.0 mi West 12.7 mph 25.3 mph N/A   Clear
12:15 PM 50.0 °F - 32.0 °F 50% 29.88 in 10.0 mi West 15.0 mph 18.4 mph N/A   Clear
12:35 PM 51.8 °F - 32.0 °F 47% 29.88 in 10.0 mi WSW 9.2 mph 20.7 mph N/A   Clear
12:55 PM 51.8 °F - 30.2 °F 44% 29.88 in 10.0 mi WSW 10.4 mph 21.9 mph N/A   Clear
1:15 PM 51.8 °F - 26.6 °F 38% 29.88 in 10.0 mi West 16.1 mph 23.0 mph N/A   Clear
1:35 PM 51.8 °F - 28.4 °F 41% 29.87 in 10.0 mi WSW 15.0 mph 19.6 mph N/A   Clear
1:55 PM 51.8 °F - 26.6 °F 38% 29.87 in 10.0 mi West 11.5 mph 17.3 mph N/A   Clear
2:35 PM 53.6 °F - 28.4 °F 38% 29.85 in 10.0 mi WSW 5.8 mph - N/A   Clear
2:55 PM 53.6 °F - 26.6 °F 35% 29.87 in 10.0 mi WSW 11.5 mph - N/A   Clear
3:15 PM 53.6 °F - 28.4 °F 38% 29.87 in 10.0 mi WSW 8.1 mph - N/A   Scattered Clouds
3:35 PM 53.6 °F - 26.6 °F 35% 29.87 in 10.0 mi WSW 8.1 mph - N/A   Scattered Clouds
3:55 PM 53.6 °F - 26.6 °F 35% 29.87 in 10.0 mi West 5.8 mph - N/A   Mostly Cloudy
4:15 PM 51.8 °F - 24.8 °F 35% 29.88 in 10.0 mi WSW 8.1 mph - N/A   Overcast
4:35 PM 51.8 °F - 24.8 °F 35% 29.88 in 10.0 mi WSW 4.6 mph - N/A   Overcast
4:55 PM 50.0 °F - 26.6 °F 40% 29.88 in 10.0 mi WSW 3.5 mph - N/A   Overcast
5:15 PM 50.0 °F - 24.8 °F 37% 29.89 in 10.0 mi WSW 3.5 mph - N/A   Scattered Clouds
5:35 PM 50.0 °F - 28.4 °F 43% 29.90 in 10.0 mi Calm Calm - N/A   Clear
5:55 PM 48.2 °F - 32.0 °F 54% 29.89 in 10.0 mi North 3.5 mph - N/A   Mostly Cloudy
6:15 PM 46.4 °F 44.3 °F 32.0 °F 57% 29.93 in 10.0 mi West 4.6 mph - N/A   Overcast
6:35 PM 50.0 °F - 30.2 °F 47% 29.94 in 10.0 mi West 3.5 mph - N/A   Overcast
6:55 PM 51.8 °F - 28.4 °F 41% 29.95 in 10.0 mi SW 4.6 mph - N/A   Overcast
7:15 PM 50.0 °F - 30.2 °F 47% 29.96 in 10.0 mi NNE 3.5 mph 20.7 mph N/A Rain Rain
7:35 PM 48.2 °F - 30.2 °F 50% 29.96 in 10.0 mi SW 9.2 mph 21.9 mph N/A   Drizzle
7:55 PM 46.4 °F 42.4 °F 30.2 °F 53% 29.97 in 10.0 mi WNW 8.1 mph - N/A Rain Rain
8:15 PM 44.6 °F 39.7 °F 33.8 °F 66% 30.00 in 10.0 mi NW 9.2 mph 23.0 mph N/A Rain Light Rain
8:35 PM 41.0 °F 35.8 °F 37.4 °F 87% 30.00 in 4.0 mi NW 8.1 mph - 0.03 in Rain Rain
8:55 PM 41.0 °F 38.0 °F 39.2 °F 93% 30.00 in 10.0 mi NNW 4.6 mph - 0.06 in Rain Rain
9:15 PM 41.0 °F 39.0 °F 39.2 °F 93% 29.99 in 10.0 mi NW 3.5 mph - 0.01 in Rain Rain
9:35 PM 41.0 °F - 39.2 °F 93% 29.99 in 10.0 mi Calm Calm - 0.01 in   Drizzle
9:55 PM 41.0 °F 39.0 °F 39.2 °F 93% 30.00 in 10.0 mi WSW 3.5 mph - 0.01 in   Drizzle
10:15 PM 41.0 °F 39.0 °F 41.0 °F 100% 30.00 in 10.0 mi WNW 3.5 mph - N/A   Drizzle
10:35 PM 41.0 °F 37.1 °F 41.0 °F 100% 30.00 in 10.0 mi WNW 5.8 mph - N/A   Overcast
10:55 PM 41.0 °F 37.1 °F 41.0 °F 100% 30.01 in 10.0 mi West 5.8 mph - N/A   Overcast
11:15 PM 41.0 °F 39.0 °F 41.0 °F 100% 30.02 in 10.0 mi West 3.5 mph - N/A   Overcast
11:35 PM 41.0 °F - 41.0 °F 100% 30.02 in 10.0 mi Calm Calm - N/A   Overcast
11:55 PM 41.0 °F - 41.0 °F 100% 30.01 in 10.0 mi Calm Calm - N/A   Overcast